{"data":{"norad_id":64095,"epoch":"2026-05-24T17:08:56.224896Z","epoch_age_seconds":93508,"freshness":"FRESH","line1":"1 64095U 25109A   26144.71453964  .00008471  00000+0  30605-3 0  9993","line2":"2 64095  72.9716 261.7988 0010379 161.8430 198.3138 15.28595255 56025","mean_motion":15.28595255,"eccentricity":0.0010379,"inclination_deg":72.9716,"raan_deg":261.7988,"arg_perigee_deg":161.843,"mean_anomaly_deg":198.3138,"bstar":0.00030605,"rev_number":5602,"period_min":94.204139080623,"perigee_km":472.89266851687,"apogee_km":487.12881159568,"semimajor_km":6858.1477400563,"source":"CELESTRAK","updated_at":"2026-05-25T13:38:04.236607Z"}}